Regional Weather Roundup
Issued by NWS

Home | Current Version | Previous Version | Text Only | Print | Product List | Glossary Off
Versions: 1 2 3 4 5 6 7 8 9 10 11 12 13 14 15 16 17 18 19 20 21 22 23 24 25 26 27 28 29 30 31 32 33 34 35 36 37 38 39 40 41 42 43 44 45 46 47 48 49 50

000
ASUS43 KOAX 220002
RWRNE

WEATHER ROUNDUP FOR NEBRASKA
NATIONAL WEATHER SERVICE OMAHA NE
600 PM CST SUN DEC 21 2014

NOTES: SATELLITE DATA IS BEING USED TO AUGMENT CLOUD COVER ABOVE
       12000 FEET.
       "FAIR" INDICATES FEW OR NO CLOUDS BELOW 12,000 FEET WITH NO
       SIGNIFICANT WEATHER AND/OR OBSTRUCTIONS TO VISIBILITY.

  * THESE STATIONS DO NOT REPORT WEATHER SUCH AS RAIN...SNOW OR FOG.

NEZ001>004-019>022-054>056-220100-
NEBRASKA PANHANDLE

CITY           SKY/WX    TMP DP  RH WIND       PRES   REMARKS
SCOTTSBLUFF    CLOUDY    40  32  73 NW10      29.49R WCI  33
6HR MIN TEMP:  39; 6HR MAX TEMP:  46; 6HR PCP: TRACE;

ALLIANCE       CLOUDY    39  32  76 NW8       29.47R WCI  33
6HR MIN TEMP:  37; 6HR MAX TEMP:  41;

CHADRON        CLOUDY    39  31  72 W9        29.46R WCI  33
6HR MIN TEMP:  39; 6HR MAX TEMP:  46; 6HR PCP: TRACE;

SIDNEY         CLOUDY    42  31  64 W10       29.50S
6HR MIN TEMP:  39; 6HR MAX TEMP:  44;

$$

NEZ057>060-069>072-079>082-220100-
SOUTHWEST NEBRASKA

CITY           SKY/WX    TMP DP  RH WIND       PRES   REMARKS
NORTH PLATTE   CLOUDY    37  32  82 SE5       29.51R WCI  33
6HR MIN TEMP:  37; 6HR MAX TEMP:  44;

IMPERIAL       CLOUDY    41  30  65 W3        29.51R
6HR MIN TEMP:  41; 6HR MAX TEMP:  47;

MCCOOK         CLOUDY    37  33  85 S8        29.54S WCI  31
6HR MIN TEMP:  37; 6HR MAX TEMP:  47;

$$

NEZ005>010-023>029-035>040-094-220100-
NORTH CENTRAL NEBRASKA

CITY           SKY/WX    TMP DP  RH WIND       PRES   REMARKS
VALENTINE      CLOUDY    40  31  70 SW12      29.40F WCI  33
6HR MIN TEMP:  38; 6HR MAX TEMP:  45;

BROKEN BOW     CLOUDY    37  35  92 S8        29.51S FOG     WCI  31
6HR MIN TEMP:  37; 6HR MAX TEMP:  45;

$$

NEZ041-046>049-061>064-073>077-083>087-220100-
SOUTH CENTRAL NEBRASKA

CITY           SKY/WX    TMP DP  RH WIND       PRES   REMARKS
GRAND ISLAND   CLOUDY    40  38  93 S10       29.61F WCI  33
6HR MIN TEMP:  36; 6HR MAX TEMP:  41;

HASTINGS       CLOUDY    40  37  89 S13       29.60F WCI  32
6HR MIN TEMP:  36; 6HR MAX TEMP:  41;

KEARNEY *      CLOUDY    39  36  87 SE12      29.57F WCI  32
$$

NEZ011>018-030>034-042>045-220100-
NORTHEAST NEBRASKA

CITY           SKY/WX    TMP DP  RH WIND       PRES   REMARKS
NORFOLK        LGT RAIN  41  39  93 S17G23    29.60F FOG
6HR MIN TEMP:  38; 6HR MAX TEMP:  41; 6HR PCP: TRACE;

COLUMBUS *     CLOUDY    41  36  81 S12       29.66S
TEKAMAH        CLOUDY    42  39  89 S15       29.69S
6HR MIN TEMP:  41; 6HR MAX TEMP:  42;

$$

NEZ050>053-065>068-078-088>093-220100-
SOUTHEAST NEBRASKA

CITY           SKY/WX    TMP DP  RH WIND       PRES   REMARKS
LINCOLN        CLOUDY    42  40  92 S16       29.69S
6HR MIN TEMP:  41; 6HR MAX TEMP:  42;

OMAHA EPPLEY   CLOUDY    42  39  89 S17       29.72F
6HR MIN TEMP:  41; 6HR MAX TEMP:  42;

FALLS CITY     CLOUDY    42  40  92 S14       29.75F FOG
6HR MIN TEMP:  41; 6HR MAX TEMP:  43;

$$

NEZ044-045-051>053-067-220100-
OMAHA AREA

CITY           SKY/WX    TMP DP  RH WIND       PRES   REMARKS
OMAHA EPPLEY   CLOUDY    42  39  89 S17       29.72F
6HR MIN TEMP:  41; 6HR MAX TEMP:  42;

OFFUTT AFB     CLOUDY    41  39  94 SE12      29.71F FOG
$$



USA.gov is the U.S. government's official web portal to all federal, state and local government web resources and services.